Location: Newark
(50.4348°N, 30.5552°E)
Time: 07:48:39
(UTC+00:00)

Envisat - Pass Details

Date: 12 December 2019
Orbit: 764 x 766 km, 98.1° (Epoch: 28 January)

Event Time Altitude Azimuth Distance (km) Brightness Sun altitude
Rises 14:43:40 0° 135° (SE) 3,226 6.0 -7.6°
Reaches altitude 10° 14:46:09 10° 126° (SE) 2,304 5.2 -7.9°
Maximum altitude 14:50:38 33° 64° (ENE) 1,284 3.6 -8.5°
Drops below altitude 10° 14:55:08 10° 2° (N) 2,317 5.2 -9.2°
Sets 14:57:38 0° 353° (N) 3,248 6.1 -9.6°
